Time,TemperatureF,DewpointF,PressureIn,WindDirection,WindDirectionDegrees,WindSpeedMPH,WindSpeedGustMPH,Humidity,HourlyPrecipIn,Conditions,Clouds,dailyrainin,SoftwareType,DateUTC
2013-07-06 00:01:00,70.9,69.4,30.14,ENE,70,0.0,1.0,95,0.01,,,0.00,WUHU216DAVISVP2,2013-07-06 04:01:00,
2013-07-06 00:06:00,70.8,69.3,30.15,ENE,70,0.0,1.0,95,0.00,,,0.00,WUHU216DAVISVP2,2013-07-06 04:06:00,
2013-07-06 00:11:00,70.6,69.1,30.15,ENE,70,0.0,1.0,95,0.00,,,0.00,WUHU216DAVISVP2,2013-07-06 04:11:00,
2013-07-06 00:16:00,70.2,68.7,30.15,ENE,70,0.0,1.0,95,0.00,,,0.00,WUHU216DAVISVP2,2013-07-06 04:16:00,
2013-07-06 00:21:00,70.0,68.5,30.15,ENE,70,0.0,0.0,95,0.00,,,0.00,WUHU216DAVISVP2,2013-07-06 04:21:00,
2013-07-06 00:26:00,69.9,68.4,30.15,ENE,70,0.0,0.0,95,0.00,,,0.00,WUHU216DAVISVP2,2013-07-06 04:26:00,
2013-07-06 00:31:00,69.8,68.3,30.15,ENE,70,0.0,0.0,95,0.00,,,0.00,WUHU216DAVISVP2,2013-07-06 04:31:00,
2013-07-06 00:36:00,69.6,68.1,30.15,ENE,70,0.0,0.0,95,0.00,,,0.00,WUHU216DAVISVP2,2013-07-06 04:36:00,
2013-07-06 00:41:00,69.3,67.8,30.15,ENE,71,0.0,0.0,95,0.00,,,0.00,WUHU216DAVISVP2,2013-07-06 04:41:00,
2013-07-06 00:46:00,69.3,67.8,30.15,ENE,71,0.0,0.0,95,0.00,,,0.00,WUHU216DAVISVP2,2013-07-06 04:46:00,
2013-07-06 00:51:00,69.0,67.5,30.14,ENE,70,0.0,0.0,95,0.00,,,0.00,WUHU216DAVISVP2,2013-07-06 04:51:00,
2013-07-06 00:56:00,69.0,67.5,30.14,ENE,71,0.0,0.0,95,0.00,,,0.00,WUHU216DAVISVP2,2013-07-06 04:56:00,
2013-07-06 01:01:00,69.0,67.5,30.14,ENE,70,0.0,0.0,95,0.00,,,0.00,WUHU216DAVISVP2,2013-07-06 05:01:00,
2013-07-06 01:06:00,68.8,67.3,30.14,ENE,70,0.0,0.0,95,0.00,,,0.00,WUHU216DAVISVP2,2013-07-06 05:06:00,
2013-07-06 01:11:00,68.6,67.1,30.14,ENE,70,0.0,0.0,95,0.00,,,0.00,WUHU216DAVISVP2,2013-07-06 05:11:00,
2013-07-06 01:16:00,68.5,67.0,30.14,ENE,70,0.0,0.0,95,0.00,,,0.00,WUHU216DAVISVP2,2013-07-06 05:16:00,
2013-07-06 01:21:00,68.5,67.0,30.13,ENE,70,0.0,0.0,95,0.00,,,0.00,WUHU216DAVISVP2,2013-07-06 05:21:00,
2013-07-06 01:26:00,68.4,66.9,30.14,ENE,70,0.0,0.0,95,0.00,,,0.00,WUHU216DAVISVP2,2013-07-06 05:26:00,
2013-07-06 01:31:00,68.4,66.9,30.14,ENE,70,0.0,0.0,95,0.00,,,0.00,WUHU216DAVISVP2,2013-07-06 05:31:00,
2013-07-06 01:36:00,68.4,66.9,30.14,ENE,70,0.0,0.0,95,0.00,,,0.00,WUHU216DAVISVP2,2013-07-06 05:36:00,
2013-07-06 01:41:00,68.3,66.8,30.14,ENE,70,0.0,0.0,95,0.00,,,0.00,WUHU216DAVISVP2,2013-07-06 05:41:00,
2013-07-06 01:46:00,68.3,66.8,30.14,ENE,70,0.0,0.0,95,0.00,,,0.00,WUHU216DAVISVP2,2013-07-06 05:46:00,
2013-07-06 01:51:00,68.4,66.9,30.14,ENE,70,0.0,0.0,95,0.00,,,0.00,WUHU216DAVISVP2,2013-07-06 05:51:00,
2013-07-06 01:57:00,68.5,67.0,30.14,ENE,70,0.0,0.0,95,0.00,,,0.00,WUHU216DAVISVP2,2013-07-06 05:57:00,
2013-07-06 02:02:00,68.5,67.0,30.14,ENE,70,0.0,0.0,95,0.00,,,0.00,WUHU216DAVISVP2,2013-07-06 06:02:00,
2013-07-06 02:07:00,68.6,67.1,30.14,ENE,70,0.0,0.0,95,0.00,,,0.00,WUHU216DAVISVP2,2013-07-06 06:07:00,
2013-07-06 02:12:00,68.6,67.1,30.14,ENE,70,0.0,0.0,95,0.00,,,0.00,WUHU216DAVISVP2,2013-07-06 06:12:00,
2013-07-06 02:17:00,68.6,67.1,30.14,ENE,70,1.0,1.0,95,0.00,,,0.00,WUHU216DAVISVP2,2013-07-06 06:17:00,
2013-07-06 02:22:00,68.7,67.2,30.13,ENE,70,1.0,1.0,95,0.00,,,0.00,WUHU216DAVISVP2,2013-07-06 06:22:00,
2013-07-06 02:27:00,68.7,67.2,30.13,ENE,71,0.0,1.0,95,0.00,,,0.00,WUHU216DAVISVP2,2013-07-06 06:27:00,
2013-07-06 02:32:00,68.8,67.3,30.14,ENE,71,0.0,1.0,95,0.00,,,0.00,WUHU216DAVISVP2,2013-07-06 06:32:00,
2013-07-06 02:37:00,68.8,67.3,30.13,ENE,70,0.0,1.0,95,0.00,,,0.00,WUHU216DAVISVP2,2013-07-06 06:37:00,
2013-07-06 02:42:00,68.8,67.3,30.13,ENE,70,0.0,0.0,95,0.00,,,0.00,WUHU216DAVISVP2,2013-07-06 06:42:00,
2013-07-06 02:47:00,68.8,67.3,30.13,ENE,70,1.0,1.0,95,0.00,,,0.00,WUHU216DAVISVP2,2013-07-06 06:47:00,
2013-07-06 02:52:00,68.9,67.4,30.13,ENE,70,1.0,1.0,95,0.00,,,0.00,WUHU216DAVISVP2,2013-07-06 06:52:00,
2013-07-06 02:57:00,69.0,67.5,30.13,ENE,70,0.0,1.0,95,0.00,,,0.00,WUHU216DAVISVP2,2013-07-06 06:57:00,
2013-07-06 03:02:00,68.9,67.4,30.14,ENE,70,0.0,1.0,95,0.00,,,0.00,WUHU216DAVISVP2,2013-07-06 07:02:00,
2013-07-06 03:07:00,68.9,67.4,30.14,ENE,70,0.0,1.0,95,0.00,,,0.00,WUHU216DAVISVP2,2013-07-06 07:07:00,
2013-07-06 03:12:00,68.9,67.4,30.14,ENE,70,0.0,0.0,95,0.00,,,0.00,WUHU216DAVISVP2,2013-07-06 07:12:00,
2013-07-06 03:17:00,68.8,67.3,30.14,ENE,70,0.0,1.0,95,0.00,,,0.00,WUHU216DAVISVP2,2013-07-06 07:17:00,
2013-07-06 03:22:00,68.8,67.3,30.14,ENE,70,0.0,1.0,95,0.00,,,0.00,WUHU216DAVISVP2,2013-07-06 07:22:00,
2013-07-06 03:27:00,68.8,67.3,30.13,ENE,70,0.0,1.0,95,0.00,,,0.00,WUHU216DAVISVP2,2013-07-06 07:27:00,
2013-07-06 03:32:00,68.7,67.2,30.13,ENE,70,0.0,1.0,95,0.00,,,0.00,WUHU216DAVISVP2,2013-07-06 07:32:00,
2013-07-06 03:37:00,68.6,67.1,30.13,ENE,70,0.0,1.0,95,0.00,,,0.00,WUHU216DAVISVP2,2013-07-06 07:37:00,
2013-07-06 03:42:00,68.6,67.1,30.13,ENE,70,1.0,1.0,95,0.00,,,0.00,WUHU216DAVISVP2,2013-07-06 07:42:00,
2013-07-06 03:47:00,68.5,67.0,30.13,ENE,70,0.0,1.0,95,0.00,,,0.00,WUHU216DAVISVP2,2013-07-06 07:47:00,
2013-07-06 03:52:00,68.4,66.9,30.13,ENE,70,0.0,1.0,95,0.00,,,0.00,WUHU216DAVISVP2,2013-07-06 07:52:00,
2013-07-06 03:57:00,68.3,66.8,30.13,ENE,71,0.0,1.0,95,0.00,,,0.00,WUHU216DAVISVP2,2013-07-06 07:57:00,
2013-07-06 04:02:00,68.2,66.7,30.14,ENE,77,0.0,1.0,95,0.00,,,0.00,WUHU216DAVISVP2,2013-07-06 08:02:00,
2013-07-06 04:07:00,68.1,66.6,30.14,ENE,75,0.0,1.0,95,0.00,,,0.00,WUHU216DAVISVP2,2013-07-06 08:07:00,
2013-07-06 04:12:00,67.9,66.4,30.14,ENE,77,0.0,1.0,95,0.00,,,0.00,WUHU216DAVISVP2,2013-07-06 08:12:00,
2013-07-06 04:17:00,67.9,66.4,30.14,ENE,77,0.0,0.0,95,0.00,,,0.00,WUHU216DAVISVP2,2013-07-06 08:17:00,
2013-07-06 04:22:00,67.9,66.4,30.14,ENE,77,0.0,0.0,95,0.00,,,0.00,WUHU216DAVISVP2,2013-07-06 08:22:00,
2013-07-06 04:27:00,67.8,66.3,30.14,ENE,76,0.0,1.0,95,0.00,,,0.00,WUHU216DAVISVP2,2013-07-06 08:27:00,
2013-07-06 04:32:00,67.9,66.4,30.14,ENE,75,0.0,1.0,95,0.00,,,0.00,WUHU216DAVISVP2,2013-07-06 08:32:00,
2013-07-06 04:37:00,67.9,66.4,30.14,ENE,76,0.0,1.0,95,0.00,,,0.00,WUHU216DAVISVP2,2013-07-06 08:37:00,
2013-07-06 04:42:00,68.0,66.5,30.14,ENE,76,0.0,1.0,95,0.00,,,0.00,WUHU216DAVISVP2,2013-07-06 08:42:00,
2013-07-06 04:47:00,68.0,66.5,30.14,ENE,77,0.0,0.0,95,0.00,,,0.00,WUHU216DAVISVP2,2013-07-06 08:47:00,
2013-07-06 04:52:00,67.9,66.4,30.14,ENE,75,0.0,0.0,95,0.00,,,0.00,WUHU216DAVISVP2,2013-07-06 08:52:00,
2013-07-06 04:57:00,67.9,66.4,30.14,ENE,76,0.0,0.0,95,0.00,,,0.00,WUHU216DAVISVP2,2013-07-06 08:57:00,
2013-07-06 05:02:00,67.8,66.3,30.14,ENE,76,0.0,0.0,95,0.00,,,0.00,WUHU216DAVISVP2,2013-07-06 09:02:00,
2013-07-06 05:07:00,67.7,66.2,30.14,East,83,1.0,1.0,95,0.00,,,0.00,WUHU216DAVISVP2,2013-07-06 09:07:00,
2013-07-06 05:12:00,67.6,66.1,30.14,East,83,1.0,1.0,95,0.00,,,0.00,WUHU216DAVISVP2,2013-07-06 09:12:00,
2013-07-06 05:17:00,67.5,66.0,30.14,East,83,0.0,1.0,95,0.00,,,0.00,WUHU216DAVISVP2,2013-07-06 09:17:00,
2013-07-06 05:22:00,67.5,66.0,30.14,East,83,0.0,1.0,95,0.00,,,0.00,WUHU216DAVISVP2,2013-07-06 09:22:00,
2013-07-06 05:27:00,67.4,65.9,30.14,East,83,0.0,1.0,95,0.00,,,0.00,WUHU216DAVISVP2,2013-07-06 09:27:00,
2013-07-06 05:32:00,67.4,65.9,30.14,East,84,0.0,0.0,95,0.00,,,0.00,WUHU216DAVISVP2,2013-07-06 09:32:00,
2013-07-06 05:37:00,67.4,65.9,30.15,East,83,0.0,0.0,95,0.00,,,0.00,WUHU216DAVISVP2,2013-07-06 09:37:00,
2013-07-06 05:42:00,67.3,65.8,30.15,East,83,0.0,0.0,95,0.00,,,0.00,WUHU216DAVISVP2,2013-07-06 09:42:00,
2013-07-06 05:47:00,67.2,65.7,30.15,East,84,0.0,1.0,95,0.00,,,0.00,WUHU216DAVISVP2,2013-07-06 09:47:00,
2013-07-06 05:52:00,67.2,65.7,30.15,East,83,0.0,1.0,95,0.00,,,0.00,WUHU216DAVISVP2,2013-07-06 09:52:00,
2013-07-06 05:57:00,67.2,65.7,30.15,East,83,0.0,1.0,95,0.00,,,0.00,WUHU216DAVISVP2,2013-07-06 09:57:00,
2013-07-06 06:02:00,67.2,65.7,30.15,East,83,0.0,1.0,95,0.00,,,0.00,WUHU216DAVISVP2,2013-07-06 10:02:00,
2013-07-06 06:07:00,67.1,65.6,30.15,East,84,0.0,0.0,95,0.00,,,0.00,WUHU216DAVISVP2,2013-07-06 10:07:00,
2013-07-06 06:13:00,67.1,65.6,30.15,East,83,0.0,0.0,95,0.00,,,0.00,WUHU216DAVISVP2,2013-07-06 10:13:00,
2013-07-06 06:18:00,67.0,65.5,30.15,East,83,0.0,0.0,95,0.00,,,0.00,WUHU216DAVISVP2,2013-07-06 10:18:00,
2013-07-06 06:23:00,67.1,65.6,30.15,East,84,0.0,0.0,95,0.00,,,0.00,WUHU216DAVISVP2,2013-07-06 10:23:00,
2013-07-06 06:28:00,67.1,65.6,30.15,East,83,0.0,0.0,95,0.00,,,0.00,WUHU216DAVISVP2,2013-07-06 10:28:00,
2013-07-06 06:33:00,67.2,65.7,30.15,East,83,0.0,0.0,95,0.00,,,0.00,WUHU216DAVISVP2,2013-07-06 10:33:00,
2013-07-06 06:38:00,67.2,65.7,30.15,East,83,0.0,0.0,95,0.00,,,0.00,WUHU216DAVISVP2,2013-07-06 10:38:00,
2013-07-06 06:43:00,67.2,65.7,30.15,East,83,0.0,0.0,95,0.00,,,0.00,WUHU216DAVISVP2,2013-07-06 10:43:00,
2013-07-06 06:48:00,67.2,65.7,30.15,East,83,0.0,0.0,95,0.00,,,0.00,WUHU216DAVISVP2,2013-07-06 10:48:00,
2013-07-06 06:53:00,67.3,65.8,30.15,East,83,0.0,0.0,95,0.00,,,0.00,WUHU216DAVISVP2,2013-07-06 10:53:00,
2013-07-06 06:58:00,67.4,65.9,30.15,East,83,0.0,0.0,95,0.00,,,0.00,WUHU216DAVISVP2,2013-07-06 10:58:00,
2013-07-06 07:03:00,67.5,66.0,30.15,East,90,0.0,0.0,95,0.00,,,0.00,WUHU216DAVISVP2,2013-07-06 11:03:00,
2013-07-06 07:08:00,67.8,66.3,30.15,East,92,0.0,0.0,95,0.00,,,0.00,WUHU216DAVISVP2,2013-07-06 11:08:00,
2013-07-06 07:13:00,68.0,66.5,30.15,East,92,0.0,0.0,95,0.00,,,0.00,WUHU216DAVISVP2,2013-07-06 11:13:00,
2013-07-06 07:18:00,67.9,66.4,30.15,East,91,0.0,0.0,95,0.00,,,0.00,WUHU216DAVISVP2,2013-07-06 11:18:00,
2013-07-06 07:23:00,67.9,66.4,30.15,East,92,0.0,0.0,95,0.00,,,0.00,WUHU216DAVISVP2,2013-07-06 11:23:00,
2013-07-06 07:28:00,67.8,66.3,30.15,East,91,0.0,0.0,95,0.00,,,0.00,WUHU216DAVISVP2,2013-07-06 11:28:00,
2013-07-06 07:33:00,67.8,66.3,30.15,East,92,0.0,0.0,95,0.00,,,0.00,WUHU216DAVISVP2,2013-07-06 11:33:00,
2013-07-06 07:38:00,67.9,66.4,30.15,East,91,1.0,1.0,95,0.00,,,0.00,WUHU216DAVISVP2,2013-07-06 11:38:00,
2013-07-06 07:43:00,68.2,66.7,30.15,East,91,0.0,1.0,95,0.00,,,0.00,WUHU216DAVISVP2,2013-07-06 11:43:00,
2013-07-06 07:48:00,68.1,66.6,30.15,East,91,0.0,1.0,95,0.00,,,0.00,WUHU216DAVISVP2,2013-07-06 11:48:00,
2013-07-06 07:53:00,68.3,66.8,30.15,East,92,0.0,1.0,95,0.00,,,0.00,WUHU216DAVISVP2,2013-07-06 11:53:00,
2013-07-06 07:58:00,68.5,67.0,30.15,East,91,1.0,1.0,95,0.00,,,0.00,WUHU216DAVISVP2,2013-07-06 11:58:00,
2013-07-06 08:03:00,68.6,67.1,30.15,East,86,0.0,1.0,95,0.00,,,0.00,WUHU216DAVISVP2,2013-07-06 12:03:00,
2013-07-06 08:08:00,68.9,67.4,30.15,East,86,1.0,1.0,95,0.00,,,0.00,WUHU216DAVISVP2,2013-07-06 12:08:00,
2013-07-06 08:13:00,68.9,67.4,30.15,East,85,1.0,1.0,95,0.00,,,0.00,WUHU216DAVISVP2,2013-07-06 12:13:00,
2013-07-06 08:18:00,69.2,67.7,30.15,East,84,1.0,1.0,95,0.00,,,0.00,WUHU216DAVISVP2,2013-07-06 12:18:00,
2013-07-06 08:23:00,69.8,68.3,30.15,East,84,0.0,1.0,95,0.00,,,0.00,WUHU216DAVISVP2,2013-07-06 12:23:00,
2013-07-06 08:28:00,70.8,69.3,30.15,North,10,2.0,2.0,95,0.00,,,0.00,WUHU216DAVISVP2,2013-07-06 12:28:00,
2013-07-06 08:33:00,71.2,69.7,30.15,WNW,292,1.0,2.0,95,0.00,,,0.00,WUHU216DAVISVP2,2013-07-06 12:33:00,
2013-07-06 08:38:00,72.0,70.5,30.15,WNW,292,0.0,1.0,95,0.00,,,0.00,WUHU216DAVISVP2,2013-07-06 12:38:00,
2013-07-06 08:43:00,73.1,70.9,30.15,WNW,292,1.0,1.0,93,0.00,,,0.00,WUHU216DAVISVP2,2013-07-06 12:43:00,
2013-07-06 08:48:00,74.2,71.4,30.15,WNW,292,0.0,1.0,91,0.00,,,0.00,WUHU216DAVISVP2,2013-07-06 12:48:00,
2013-07-06 08:53:00,75.5,71.7,30.15,East,84,1.0,1.0,88,0.00,,,0.00,WUHU216DAVISVP2,2013-07-06 12:53:00,
2013-07-06 08:58:00,77.0,72.9,30.15,East,84,0.0,1.0,87,0.00,,,0.00,WUHU216DAVISVP2,2013-07-06 12:58:00,
2013-07-06 09:03:00,77.6,72.8,30.14,East,84,1.0,1.0,85,0.00,,,0.00,WUHU216DAVISVP2,2013-07-06 13:03:00,
2013-07-06 09:08:00,77.8,73.0,30.14,ENE,59,0.0,1.0,85,0.00,,,0.00,WUHU216DAVISVP2,2013-07-06 13:08:00,
2013-07-06 09:13:00,77.7,72.9,30.14,WNW,284,0.0,1.0,85,0.00,,,0.00,WUHU216DAVISVP2,2013-07-06 13:13:00,
2013-07-06 09:18:00,78.0,72.5,30.14,WSW,242,0.0,1.0,83,0.00,,,0.00,WUHU216DAVISVP2,2013-07-06 13:18:00,
2013-07-06 09:23:00,78.7,72.8,30.14,WSW,243,0.0,0.0,82,0.00,,,0.00,WUHU216DAVISVP2,2013-07-06 13:23:00,
2013-07-06 09:28:00,80.2,73.9,30.14,North,11,0.0,0.0,81,0.00,,,0.00,WUHU216DAVISVP2,2013-07-06 13:28:00,
2013-07-06 09:33:00,80.6,75.0,30.14,North,349,0.0,0.0,83,0.00,,,0.00,WUHU216DAVISVP2,2013-07-06 13:33:00,
2013-07-06 09:38:00,80.7,73.7,30.13,NW,310,1.7,2.0,79,0.00,,,0.00,WUHU216DAVISVP2,2013-07-06 13:38:00,
2013-07-06 09:43:00,80.3,73.0,30.13,West,277,1.0,2.0,78,0.00,,,0.00,WUHU216DAVISVP2,2013-07-06 13:43:00,
2013-07-06 09:48:00,81.1,73.4,30.14,NNE,25,1.8,3.0,77,0.00,,,0.00,WUHU216DAVISVP2,2013-07-06 13:48:00,
2013-07-06 09:53:00,81.4,75.1,30.13,NNW,332,1.0,3.0,81,0.00,,,0.00,WUHU216DAVISVP2,2013-07-06 13:53:00,
2013-07-06 09:58:00,82.1,74.7,30.13,North,11,1.0,2.0,78,0.00,,,0.00,WUHU216DAVISVP2,2013-07-06 13:58:00,
2013-07-06 10:03:00,82.3,73.4,30.13,SE,125,1.4,3.0,74,0.00,,,0.00,WUHU216DAVISVP2,2013-07-06 14:03:00,
2013-07-06 10:08:00,82.6,73.7,30.13,ENE,72,1.0,3.0,74,0.00,,,0.00,WUHU216DAVISVP2,2013-07-06 14:08:00,
2013-07-06 10:13:00,83.0,73.3,30.13,NNE,26,2.0,3.0,72,0.00,,,0.00,WUHU216DAVISVP2,2013-07-06 14:13:00,
2013-07-06 10:18:00,83.3,72.9,30.13,North,354,1.0,3.0,71,0.00,,,0.00,WUHU216DAVISVP2,2013-07-06 14:18:00,
2013-07-06 10:23:00,83.6,73.2,30.13,North,6,1.4,2.0,71,0.00,,,0.00,WUHU216DAVISVP2,2013-07-06 14:23:00,
2013-07-06 10:28:00,84.0,74.0,30.12,NE,45,1.3,2.0,72,0.00,,,0.00,WUHU216DAVISVP2,2013-07-06 14:28:00,
2013-07-06 10:33:00,84.2,73.8,30.13,ENE,60,1.3,2.0,71,0.00,,,0.00,WUHU216DAVISVP2,2013-07-06 14:33:00,
2013-07-06 10:38:00,84.3,74.7,30.12,WNW,296,1.8,3.0,73,0.00,,,0.00,WUHU216DAVISVP2,2013-07-06 14:38:00,
2013-07-06 10:43:00,84.1,72.8,30.12,WNW,291,1.4,3.0,69,0.00,,,0.00,WUHU216DAVISVP2,2013-07-06 14:43:00,
2013-07-06 10:48:00,84.4,73.5,30.12,WNW,295,1.0,3.0,70,0.00,,,0.00,WUHU216DAVISVP2,2013-07-06 14:48:00,
2013-07-06 10:53:00,84.7,73.4,30.12,NNW,333,1.0,3.0,69,0.00,,,0.00,WUHU216DAVISVP2,2013-07-06 14:53:00,
2013-07-06 10:58:00,84.8,73.3,30.12,WNW,290,1.0,3.0,68,0.00,,,0.00,WUHU216DAVISVP2,2013-07-06 14:58:00,
2013-07-06 11:03:00,85.1,72.7,30.12,West,270,1.0,4.0,66,0.00,,,0.00,WUHU216DAVISVP2,2013-07-06 15:03:00,
2013-07-06 11:08:00,85.3,72.9,30.12,NW,309,2.0,4.0,66,0.00,,,0.00,WUHU216DAVISVP2,2013-07-06 15:08:00,
2013-07-06 11:13:00,85.3,72.0,30.12,West,261,1.1,3.0,64,0.00,,,0.00,WUHU216DAVISVP2,2013-07-06 15:13:00,
2013-07-06 11:18:00,86.1,73.2,30.12,NE,39,2.0,3.0,65,0.00,,,0.00,WUHU216DAVISVP2,2013-07-06 15:18:00,
2013-07-06 11:23:00,86.6,73.3,30.12,West,262,2.0,3.0,64,0.00,,,0.00,WUHU216DAVISVP2,2013-07-06 15:23:00,
2013-07-06 11:28:00,86.6,72.3,30.12,WSW,238,1.0,3.0,62,0.00,,,0.00,WUHU216DAVISVP2,2013-07-06 15:28:00,
2013-07-06 11:33:00,86.6,74.2,30.11,ENE,59,1.6,3.0,66,0.00,,,0.00,WUHU216DAVISVP2,2013-07-06 15:33:00,
2013-07-06 11:38:00,87.1,71.8,30.11,WSW,246,1.4,3.0,60,0.00,,,0.00,WUHU216DAVISVP2,2013-07-06 15:38:00,
2013-07-06 11:43:00,88.0,72.7,30.11,SW,227,1.1,3.0,60,0.00,,,0.00,WUHU216DAVISVP2,2013-07-06 15:43:00,
2013-07-06 11:48:00,88.3,71.4,30.11,West,272,1.1,3.0,57,0.00,,,0.00,WUHU216DAVISVP2,2013-07-06 15:48:00,
2013-07-06 11:53:00,88.2,72.8,30.11,East,80,3.0,4.0,60,0.00,,,0.00,WUHU216DAVISVP2,2013-07-06 15:53:00,
2013-07-06 11:59:00,88.0,71.6,30.11,East,87,1.7,4.0,58,0.00,,,0.00,WUHU216DAVISVP2,2013-07-06 15:59:00,
2013-07-06 12:04:00,88.3,72.9,30.11,NE,46,1.1,4.0,60,0.00,,,0.00,WUHU216DAVISVP2,2013-07-06 16:04:00,
2013-07-06 12:09:00,89.0,71.5,30.10,NNE,32,1.2,4.0,56,0.00,,,0.00,WUHU216DAVISVP2,2013-07-06 16:09:00,
2013-07-06 12:14:00,89.0,72.1,30.10,ESE,120,1.4,3.0,57,0.00,,,0.00,WUHU216DAVISVP2,2013-07-06 16:14:00,
2013-07-06 12:20:00,89.4,73.5,30.10,SW,231,1.6,4.0,59,0.00,,,0.00,WUHU216DAVISVP2,2013-07-06 16:20:00,
2013-07-06 12:25:00,89.7,72.2,30.10,WNW,289,4.0,5.0,56,0.00,,,0.00,WUHU216DAVISVP2,2013-07-06 16:25:00,
2013-07-06 12:30:00,89.4,71.9,30.10,West,271,2.0,6.0,56,0.00,,,0.00,WUHU216DAVISVP2,2013-07-06 16:30:00,
2013-07-06 12:35:00,89.8,72.8,30.10,West,270,2.6,6.0,57,0.00,,,0.00,WUHU216DAVISVP2,2013-07-06 16:35:00,
2013-07-06 12:41:00,89.7,71.6,30.10,WNW,286,2.1,6.0,55,0.00,,,0.00,WUHU216DAVISVP2,2013-07-06 16:41:00,
2013-07-06 12:46:00,88.2,71.8,30.09,NW,324,2.0,6.0,58,0.00,,,0.00,WUHU216DAVISVP2,2013-07-06 16:46:00,
2013-07-06 12:51:00,87.8,72.0,30.09,WNW,290,2.0,7.0,59,0.00,,,0.00,WUHU216DAVISVP2,2013-07-06 16:51:00,
2013-07-06 12:56:00,88.5,71.6,30.09,WNW,297,5.0,7.0,57,0.00,,,0.00,WUHU216DAVISVP2,2013-07-06 16:56:00,
2013-07-06 13:02:00,88.5,70.5,30.09,WNW,283,2.4,7.0,55,0.00,,,0.00,WUHU216DAVISVP2,2013-07-06 17:02:00,
2013-07-06 13:07:00,88.7,69.6,30.08,WSW,257,1.2,6.0,53,0.00,,,0.00,WUHU216DAVISVP2,2013-07-06 17:07:00,
2013-07-06 13:12:00,89.0,72.1,30.08,East,92,3.5,7.0,57,0.00,,,0.00,WUHU216DAVISVP2,2013-07-06 17:12:00,
2013-07-06 13:18:00,89.7,70.8,30.08,SE,143,1.4,7.0,54,0.00,,,0.00,WUHU216DAVISVP2,2013-07-06 17:18:00,
2013-07-06 13:23:00,89.9,70.7,30.08,SW,218,1.7,6.0,53,0.00,,,0.00,WUHU216DAVISVP2,2013-07-06 17:23:00,
2013-07-06 13:28:00,90.3,71.6,30.08,ENE,63,2.0,6.0,54,0.00,,,0.00,WUHU216DAVISVP2,2013-07-06 17:28:00,
2013-07-06 13:33:00,90.3,72.2,30.07,ESE,116,2.0,6.0,55,0.00,,,0.00,WUHU216DAVISVP2,2013-07-06 17:33:00,
2013-07-06 13:38:00,89.5,70.9,30.07,West,271,3.0,6.0,54,0.00,,,0.00,WUHU216DAVISVP2,2013-07-06 17:38:00,
2013-07-06 13:44:00,88.1,71.2,30.07,WSW,258,1.8,5.0,57,0.00,,,0.00,WUHU216DAVISVP2,2013-07-06 17:44:00,
2013-07-06 13:49:00,87.7,70.8,30.07,WSW,246,1.0,5.0,57,0.00,,,0.00,WUHU216DAVISVP2,2013-07-06 17:49:00,
2013-07-06 13:54:00,87.3,71.0,30.07,SW,236,1.2,5.0,58,0.00,,,0.00,WUHU216DAVISVP2,2013-07-06 17:54:00,
2013-07-06 13:59:00,87.3,72.0,30.07,East,93,0.0,4.0,60,0.00,,,0.00,WUHU216DAVISVP2,2013-07-06 17:59:00,
2013-07-06 14:04:00,87.6,72.3,30.07,East,93,1.0,4.0,60,0.00,,,0.00,WUHU216DAVISVP2,2013-07-06 18:04:00,
2013-07-06 14:09:00,87.9,72.6,30.07,WSW,256,1.8,3.0,60,0.00,,,0.00,WUHU216DAVISVP2,2013-07-06 18:09:00,
2013-07-06 14:15:00,88.4,72.0,30.07,WNW,290,3.0,3.0,58,0.00,,,0.00,WUHU216DAVISVP2,2013-07-06 18:15:00,
2013-07-06 14:20:00,88.7,72.3,30.06,West,280,2.0,4.0,58,0.00,,,0.00,WUHU216DAVISVP2,2013-07-06 18:20:00,
2013-07-06 14:25:00,88.2,71.8,30.06,ESE,106,1.1,4.0,58,0.00,,,0.00,WUHU216DAVISVP2,2013-07-06 18:25:00,
2013-07-06 14:30:00,87.9,72.1,30.06,East,88,1.0,4.0,59,0.00,,,0.00,WUHU216DAVISVP2,2013-07-06 18:30:00,
2013-07-06 14:35:00,88.4,73.5,30.06,East,96,1.2,4.0,61,0.00,,,0.00,WUHU216DAVISVP2,2013-07-06 18:35:00,
2013-07-06 14:41:00,89.9,74.5,30.05,West,269,1.0,2.0,60,0.00,,,0.00,WUHU216DAVISVP2,2013-07-06 18:41:00,
2013-07-06 14:46:00,89.9,72.4,30.05,West,278,3.1,6.0,56,0.00,,,0.00,WUHU216DAVISVP2,2013-07-06 18:46:00,
2013-07-06 14:51:00,89.8,73.3,30.05,WNW,302,3.0,6.0,58,0.00,,,0.00,WUHU216DAVISVP2,2013-07-06 18:51:00,
2013-07-06 14:57:00,88.7,70.7,30.05,WNW,296,2.0,6.0,55,0.00,,,0.00,WUHU216DAVISVP2,2013-07-06 18:57:00,
2013-07-06 15:02:00,88.7,71.2,30.04,West,262,1.2,6.0,56,0.00,,,0.00,WUHU216DAVISVP2,2013-07-06 19:02:00,
2013-07-06 15:08:00,89.8,72.8,30.04,East,84,2.0,4.0,57,0.00,,,0.00,WUHU216DAVISVP2,2013-07-06 19:08:00,
2013-07-06 15:13:00,90.6,73.0,30.04,West,270,5.0,8.0,56,0.00,,,0.00,WUHU216DAVISVP2,2013-07-06 19:13:00,
2013-07-06 15:18:00,90.6,71.9,30.03,West,262,3.0,8.0,54,0.00,,,0.00,WUHU216DAVISVP2,2013-07-06 19:18:00,
2013-07-06 15:23:00,91.1,71.8,30.03,ESE,104,3.1,8.0,53,0.00,,,0.00,WUHU216DAVISVP2,2013-07-06 19:23:00,
2013-07-06 15:28:00,91.5,72.2,30.03,SW,236,1.3,8.0,53,0.00,,,0.00,WUHU216DAVISVP2,2013-07-06 19:28:00,
2013-07-06 15:33:00,91.9,72.0,30.03,ENE,78,1.9,7.0,52,0.00,,,0.00,WUHU216DAVISVP2,2013-07-06 19:33:00,
2013-07-06 15:38:00,91.9,72.0,30.02,West,272,1.4,7.0,52,0.00,,,0.00,WUHU216DAVISVP2,2013-07-06 19:38:00,
2013-07-06 15:43:00,92.1,73.3,30.02,WNW,299,2.0,4.0,54,0.00,,,0.00,WUHU216DAVISVP2,2013-07-06 19:43:00,
2013-07-06 15:49:00,91.5,72.2,30.02,WNW,283,2.6,9.0,53,0.00,,,0.00,WUHU216DAVISVP2,2013-07-06 19:49:00,
2013-07-06 15:54:00,92.1,72.8,30.02,ENE,77,2.0,9.0,53,0.00,,,0.00,WUHU216DAVISVP2,2013-07-06 19:54:00,
2013-07-06 16:00:00,92.3,71.8,30.02,WSW,247,1.7,9.0,51,0.00,,,0.00,WUHU216DAVISVP2,2013-07-06 20:00:00,
2013-07-06 16:05:00,92.6,72.6,30.02,ESE,114,1.0,9.0,52,0.00,,,0.00,WUHU216DAVISVP2,2013-07-06 20:05:00,
2013-07-06 16:10:00,92.2,71.1,30.02,East,99,2.0,5.0,50,0.00,,,0.00,WUHU216DAVISVP2,2013-07-06 20:10:00,
2013-07-06 16:15:00,91.9,72.0,30.02,East,84,1.5,5.0,52,0.00,,,0.00,WUHU216DAVISVP2,2013-07-06 20:15:00,
2013-07-06 16:20:00,91.4,69.1,30.02,West,262,2.2,4.0,48,0.00,,,0.00,WUHU216DAVISVP2,2013-07-06 20:20:00,
2013-07-06 16:26:00,91.9,70.8,30.02,WSW,249,1.9,4.0,50,0.00,,,0.00,WUHU216DAVISVP2,2013-07-06 20:26:00,
2013-07-06 16:31:00,92.1,72.8,30.02,WSW,246,1.7,5.0,53,0.00,,,0.00,WUHU216DAVISVP2,2013-07-06 20:31:00,
2013-07-06 16:36:00,92.7,70.9,30.02,East,98,3.0,6.0,49,0.00,,,0.00,WUHU216DAVISVP2,2013-07-06 20:36:00,
2013-07-06 16:41:00,92.5,70.7,30.02,SW,223,2.6,6.0,49,0.00,,,0.00,WUHU216DAVISVP2,2013-07-06 20:41:00,
2013-07-06 16:46:00,93.0,70.6,30.01,WSW,252,3.0,6.0,48,0.00,,,0.00,WUHU216DAVISVP2,2013-07-06 20:46:00,
2013-07-06 16:52:00,93.4,70.9,30.01,NW,319,2.0,6.0,48,0.00,,,0.00,WUHU216DAVISVP2,2013-07-06 20:52:00,
2013-07-06 16:57:00,92.9,72.3,30.01,ESE,117,2.0,7.0,51,0.00,,,0.00,WUHU216DAVISVP2,2013-07-06 20:57:00,
2013-07-06 17:02:00,92.9,69.8,30.01,SW,236,1.4,7.0,47,0.00,,,0.00,WUHU216DAVISVP2,2013-07-06 21:02:00,
2013-07-06 17:07:00,93.1,71.3,30.01,SE,124,3.0,7.0,49,0.00,,,0.00,WUHU216DAVISVP2,2013-07-06 21:07:00,
2013-07-06 17:12:00,92.5,68.2,30.00,East,97,2.7,7.0,45,0.00,,,0.00,WUHU216DAVISVP2,2013-07-06 21:12:00,
2013-07-06 17:18:00,91.9,66.9,30.01,ESE,110,2.6,10.0,44,0.00,,,0.00,WUHU216DAVISVP2,2013-07-06 21:18:00,
2013-07-06 17:23:00,91.4,65.8,30.01,WSW,251,2.5,10.0,43,0.00,,,0.00,WUHU216DAVISVP2,2013-07-06 21:23:00,
2013-07-06 17:28:00,91.1,65.5,30.01,East,88,2.0,9.0,43,0.00,,,0.00,WUHU216DAVISVP2,2013-07-06 21:28:00,
2013-07-06 17:34:00,91.1,68.2,30.01,NNE,22,1.3,9.0,47,0.00,,,0.00,WUHU216DAVISVP2,2013-07-06 21:34:00,
2013-07-06 17:39:00,91.0,66.7,30.00,ENE,62,1.8,7.0,45,0.00,,,0.00,WUHU216DAVISVP2,2013-07-06 21:39:00,
2013-07-06 17:44:00,91.1,67.4,30.01,East,101,2.0,7.0,46,0.00,,,0.00,WUHU216DAVISVP2,2013-07-06 21:44:00,
2013-07-06 17:49:00,91.1,65.5,30.01,West,264,3.0,7.0,43,0.00,,,0.00,WUHU216DAVISVP2,2013-07-06 21:49:00,
2013-07-06 17:54:00,91.2,66.2,30.00,East,83,1.2,6.0,44,0.00,,,0.00,WUHU216DAVISVP2,2013-07-06 21:54:00,
2013-07-06 17:59:00,91.3,66.3,30.00,South,171,1.7,6.0,44,0.00,,,0.00,WUHU216DAVISVP2,2013-07-06 21:59:00,
2013-07-06 18:05:00,91.5,67.2,30.00,WNW,292,1.0,6.0,45,0.00,,,0.00,WUHU216DAVISVP2,2013-07-06 22:05:00,
2013-07-06 18:10:00,91.7,66.7,30.00,ENE,70,3.0,5.0,44,0.00,,,0.00,WUHU216DAVISVP2,2013-07-06 22:10:00,
2013-07-06 18:15:00,91.9,67.5,30.01,ESE,107,1.0,5.0,45,0.00,,,0.00,WUHU216DAVISVP2,2013-07-06 22:15:00,
2013-07-06 18:20:00,91.5,65.8,30.01,NW,304,2.0,5.0,43,0.00,,,0.00,WUHU216DAVISVP2,2013-07-06 22:20:00,
2013-07-06 18:25:00,90.8,64.6,30.01,ESE,103,1.8,8.0,42,0.00,,,0.00,WUHU216DAVISVP2,2013-07-06 22:25:00,
2013-07-06 18:30:00,90.5,65.6,30.00,ESE,114,3.0,8.0,44,0.00,,,0.00,WUHU216DAVISVP2,2013-07-06 22:30:00,
2013-07-06 18:35:00,90.6,65.0,30.01,West,265,2.0,7.0,43,0.00,,,0.00,WUHU216DAVISVP2,2013-07-06 22:35:00,
2013-07-06 18:40:00,90.6,66.4,30.01,WSW,256,1.0,6.0,45,0.00,,,0.00,WUHU216DAVISVP2,2013-07-06 22:40:00,
2013-07-06 18:45:00,90.6,66.4,30.01,ESE,108,1.8,6.0,45,0.00,,,0.00,WUHU216DAVISVP2,2013-07-06 22:45:00,
2013-07-06 18:50:00,90.4,65.6,30.02,SE,124,1.0,5.0,44,0.00,,,0.00,WUHU216DAVISVP2,2013-07-06 22:50:00,
2013-07-06 18:55:00,90.2,64.7,30.02,East,88,2.0,4.0,43,0.00,,,0.00,WUHU216DAVISVP2,2013-07-06 22:55:00,
2013-07-06 19:00:00,90.5,66.3,30.02,SSW,200,0.0,4.0,45,0.00,,,0.00,WUHU216DAVISVP2,2013-07-06 23:00:00,
2013-07-06 19:06:00,90.7,66.5,30.02,SSW,205,1.0,2.0,45,0.00,,,0.00,WUHU216DAVISVP2,2013-07-06 23:06:00,
2013-07-06 19:11:00,89.6,71.5,30.02,SE,138,1.0,2.0,55,0.00,,,0.00,WUHU216DAVISVP2,2013-07-06 23:11:00,
2013-07-06 19:16:00,87.8,70.4,30.01,SE,132,1.0,1.0,56,0.00,,,0.00,WUHU216DAVISVP2,2013-07-06 23:16:00,
2013-07-06 19:21:00,86.8,70.0,30.01,SE,133,0.0,1.0,57,0.00,,,0.00,WUHU216DAVISVP2,2013-07-06 23:21:00,
2013-07-06 19:27:00,85.6,71.4,30.01,SE,132,0.0,1.0,62,0.00,,,0.00,WUHU216DAVISVP2,2013-07-06 23:27:00,
2013-07-06 19:32:00,84.3,71.1,30.01,SE,132,0.0,1.0,64,0.00,,,0.00,WUHU216DAVISVP2,2013-07-06 23:32:00,
2013-07-06 19:38:00,82.1,70.7,30.01,SE,133,0.0,0.0,68,0.00,,,0.00,WUHU216DAVISVP2,2013-07-06 23:38:00,
2013-07-06 19:43:00,80.1,70.5,30.01,SE,132,0.0,0.0,72,0.00,,,0.00,WUHU216DAVISVP2,2013-07-06 23:43:00,
2013-07-06 19:49:00,78.8,70.8,30.01,SE,133,0.0,1.0,76,0.00,,,0.00,WUHU216DAVISVP2,2013-07-06 23:49:00,
2013-07-06 19:54:00,77.6,70.3,30.02,SE,132,0.0,1.0,78,0.00,,,0.00,WUHU216DAVISVP2,2013-07-06 23:54:00,
2013-07-06 19:59:00,76.8,70.3,30.02,SE,132,0.0,1.0,80,0.00,,,0.00,WUHU216DAVISVP2,2013-07-06 23:59:00,
2013-07-06 20:05:00,76.4,70.2,30.02,SE,133,0.0,1.0,81,0.00,,,0.00,WUHU216DAVISVP2,2013-07-07 00:05:00,
2013-07-06 20:10:00,76.4,70.6,30.02,SE,132,0.0,0.0,82,0.00,,,0.00,WUHU216DAVISVP2,2013-07-07 00:10:00,
2013-07-06 20:15:00,75.5,69.0,30.02,SE,132,0.0,1.0,80,0.00,,,0.00,WUHU216DAVISVP2,2013-07-07 00:15:00,
2013-07-06 20:20:00,75.2,69.7,30.02,SE,131,0.0,1.0,83,0.00,,,0.00,WUHU216DAVISVP2,2013-07-07 00:20:00,
2013-07-06 20:26:00,74.9,69.4,30.03,SE,131,0.0,1.0,83,0.00,,,0.00,WUHU216DAVISVP2,2013-07-07 00:26:00,
2013-07-06 20:31:00,74.3,69.2,30.03,SE,131,0.0,1.0,84,0.00,,,0.00,WUHU216DAVISVP2,2013-07-07 00:31:00,
2013-07-06 20:36:00,73.9,69.1,30.03,SE,131,0.0,1.0,85,0.00,,,0.00,WUHU216DAVISVP2,2013-07-07 00:36:00,
2013-07-06 20:42:00,73.5,68.7,30.04,SE,131,0.0,0.0,85,0.00,,,0.00,WUHU216DAVISVP2,2013-07-07 00:42:00,
2013-07-06 20:47:00,73.0,68.6,30.04,SE,131,0.0,0.0,86,0.00,,,0.00,WUHU216DAVISVP2,2013-07-07 00:47:00,
2013-07-06 20:53:00,72.7,68.6,30.04,SE,131,0.0,0.0,87,0.00,,,0.00,WUHU216DAVISVP2,2013-07-07 00:53:00,
2013-07-06 20:58:00,72.5,68.7,30.04,SE,131,0.0,0.0,88,0.00,,,0.00,WUHU216DAVISVP2,2013-07-07 00:58:00,
2013-07-06 21:03:00,72.1,68.4,30.05,SE,131,0.0,0.0,88,0.00,,,0.00,WUHU216DAVISVP2,2013-07-07 01:03:00,
2013-07-06 21:08:00,72.0,68.6,30.05,SE,131,0.0,0.0,89,0.00,,,0.00,WUHU216DAVISVP2,2013-07-07 01:08:00,
2013-07-06 21:13:00,71.6,68.2,30.05,SE,131,0.0,1.0,89,0.00,,,0.00,WUHU216DAVISVP2,2013-07-07 01:13:00,
2013-07-06 21:19:00,71.5,67.8,30.06,North,351,1.0,2.0,88,0.00,,,0.00,WUHU216DAVISVP2,2013-07-07 01:19:00,
2013-07-06 21:24:00,71.2,67.8,30.06,NE,47,0.0,2.0,89,0.00,,,0.00,WUHU216DAVISVP2,2013-07-07 01:24:00,
2013-07-06 21:29:00,71.5,68.1,30.07,WNW,292,2.1,3.0,89,0.00,,,0.00,WUHU216DAVISVP2,2013-07-07 01:29:00,
2013-07-06 21:34:00,72.1,68.4,30.07,West,274,0.0,4.0,88,0.00,,,0.00,WUHU216DAVISVP2,2013-07-07 01:34:00,
2013-07-06 21:39:00,72.3,68.5,30.08,NE,40,1.0,4.0,88,0.00,,,0.00,WUHU216DAVISVP2,2013-07-07 01:39:00,
2013-07-06 21:44:00,72.8,69.0,30.08,West,260,1.3,4.0,88,0.00,,,0.00,WUHU216DAVISVP2,2013-07-07 01:44:00,
2013-07-06 21:49:00,74.3,69.5,30.08,West,267,1.8,6.0,85,0.00,,,0.00,WUHU216DAVISVP2,2013-07-07 01:49:00,
2013-07-06 21:55:00,75.1,69.6,30.08,West,274,2.5,6.0,83,0.00,,,0.00,WUHU216DAVISVP2,2013-07-07 01:55:00,
2013-07-06 22:01:00,75.6,69.4,30.09,West,281,4.0,6.0,81,0.00,,,0.00,WUHU216DAVISVP2,2013-07-07 02:01:00,
2013-07-06 22:06:00,75.8,69.6,30.09,West,269,2.4,6.0,81,0.00,,,0.00,WUHU216DAVISVP2,2013-07-07 02:06:00,
2013-07-06 22:11:00,75.9,69.3,30.10,WSW,243,4.0,7.0,80,0.00,,,0.00,WUHU216DAVISVP2,2013-07-07 02:11:00,
2013-07-06 22:16:00,75.8,69.2,30.10,West,274,2.0,7.0,80,0.00,,,0.00,WUHU216DAVISVP2,2013-07-07 02:16:00,
2013-07-06 22:21:00,75.7,69.1,30.10,SSW,201,2.0,6.0,80,0.00,,,0.00,WUHU216DAVISVP2,2013-07-07 02:21:00,
2013-07-06 22:26:00,75.6,69.1,30.11,WSW,255,2.0,6.0,80,0.00,,,0.00,WUHU216DAVISVP2,2013-07-07 02:26:00,
2013-07-06 22:31:00,75.5,69.0,30.11,West,269,3.0,7.0,80,0.00,,,0.00,WUHU216DAVISVP2,2013-07-07 02:31:00,
2013-07-06 22:36:00,75.5,69.0,30.11,West,263,2.8,7.0,80,0.00,,,0.00,WUHU216DAVISVP2,2013-07-07 02:36:00,
2013-07-06 22:41:00,75.4,68.9,30.11,West,265,1.9,6.0,80,0.00,,,0.00,WUHU216DAVISVP2,2013-07-07 02:41:00,
2013-07-06 22:47:00,75.3,69.2,30.11,West,269,1.4,6.0,81,0.00,,,0.00,WUHU216DAVISVP2,2013-07-07 02:47:00,
2013-07-06 22:52:00,75.0,68.9,30.13,WNW,286,1.1,5.0,81,0.00,,,0.00,WUHU216DAVISVP2,2013-07-07 02:52:00,
2013-07-06 22:57:00,74.9,69.1,30.13,West,262,1.0,4.0,82,0.00,,,0.00,WUHU216DAVISVP2,2013-07-07 02:57:00,
2013-07-06 23:02:00,75.0,68.9,30.12,ESE,113,2.0,4.0,81,0.00,,,0.00,WUHU216DAVISVP2,2013-07-07 03:02:00,
2013-07-06 23:07:00,75.0,69.2,30.12,West,266,2.2,5.0,82,0.00,,,0.00,WUHU216DAVISVP2,2013-07-07 03:07:00,
2013-07-06 23:12:00,74.9,69.1,30.12,WSW,256,2.6,7.0,82,0.00,,,0.00,WUHU216DAVISVP2,2013-07-07 03:12:00,
2013-07-06 23:18:00,74.7,68.9,30.12,West,263,2.4,7.0,82,0.00,,,0.00,WUHU216DAVISVP2,2013-07-07 03:18:00,
2013-07-06 23:23:00,74.6,68.7,30.12,WNW,295,2.0,7.0,82,0.00,,,0.00,WUHU216DAVISVP2,2013-07-07 03:23:00,
2013-07-06 23:28:00,74.5,68.6,30.12,West,266,2.0,7.0,82,0.00,,,0.00,WUHU216DAVISVP2,2013-07-07 03:28:00,
2013-07-06 23:33:00,74.6,68.4,30.12,West,272,2.5,5.0,81,0.00,,,0.00,WUHU216DAVISVP2,2013-07-07 03:33:00,
2013-07-06 23:38:00,74.6,68.4,30.12,West,265,2.0,5.0,81,0.00,,,0.00,WUHU216DAVISVP2,2013-07-07 03:38:00,
2013-07-06 23:43:00,74.5,68.6,30.12,WNW,294,2.0,5.0,82,0.00,,,0.00,WUHU216DAVISVP2,2013-07-07 03:43:00,
2013-07-06 23:48:00,74.0,68.5,30.12,WNW,297,2.4,7.0,83,0.00,,,0.00,WUHU216DAVISVP2,2013-07-07 03:48:00,
2013-07-06 23:54:00,73.0,68.2,30.12,West,281,1.0,7.0,85,0.00,,,0.00,WUHU216DAVISVP2,2013-07-07 03:54:00,